Location: Erfurt
(50.9688°N, 11.0193°E)
Time: 21:11:34
(UTC+01:00)

ISS - Pass Details

Date: 12 January 2018
Orbit: 402 x 407 km, 51.6° (Epoch: 23 January)

Event Time Altitude Azimuth Distance (km) Brightness Sun altitude
Exits shadow 04:50:47 11° 101° (E) 1,411 -0.3 -31.2°
Drops below altitude 10° 04:50:55 10° 101° (E) 1,467 -0.2 -31.2°
Sets 04:53:00 0° 101° (ESE) 2,327 1.1 -30.9°
